Content
SEND FEEDBACK

Daily
Averages
Monthly
Summary
United States of America

WRIGHTSVILLE BEACH, NORTH CAROLINA


Home > North America > United States > North Carolina
Elevation: 25 feet     Latitude: 34 16N     Longitude: 077 54W

WEATHER
 
SELECT A DAY
Number of Records: 214,379;   Date Range: 1/1/95 - 12/24/14
 
SHARE

PRINT THIS DATA

[ ← Previous Day ]
WEATHER ALMANAC - JANUARY 28, 2013
[ Next Day → ]
[ °C ]   °F
Weather ElementAverageHighLow
Temperature48.9 °F57.9 °F (2:53 pm)34 °F (1:53 am)
Dewpoint42.9 °F52 °F (8:53 pm)27 °F (1:53 am)
Humidity80.5 %97 % (9:53 pm)64 % (10:53 am)
Barometer30.37 in30.48 in (1:53 am)30.28 in (11:35 pm)
Wind Speed3.5 mph8.1 mph (3:53 am)
Weather ElementAverage
Visibility7.4 mi
Wind DirectionENE (58.5 °)

Weather ElementTotal
Precipitation---
Heating Degree Days19.1 (Base 65)
Averaged from 39 records on January 28, 2013
WEATHER CONDITIONS BREAKOUT
WIND DIRECTION BREAKOUT
WEATHER BY HOUR - JANUARY 28, 2013
[ °C ]   °F
Local TimeTemperatureDewpointHumidityBarometerVisibilityWind DirectionWind SpeedGust SpeedPrecipitationEventsConditions
1:53 AM34.0 °F27.0 °F75 %30.48 in10.0 miNNE (30°)5.8 mphPartly Cloudy
2:53 AM34.0 °F27.0 °F75 %30.47 in10.0 miNE (40°)5.8 mphClear
3:53 AM36.0 °F27.0 °F70 %30.45 in10.0 miNE (40°)8.1 mphClear
4:53 AM36.0 °F28.0 °F73 %30.45 in10.0 miNE (40°)4.6 mph0.00 inScattered Clouds
5:53 AM36.0 °F28.0 °F73 %30.46 in10.0 miNNE (20°)8.1 mphScattered Clouds
6:04 AM35.6 °F28.4 °F75 %30.47 in10.0 miNNE (20°)5.8 mphMostly Cloudy
6:53 AM37.0 °F30.0 °F76 %30.45 in10.0 miNE (40°)5.8 mphOvercast
7:43 AM37.4 °F30.2 °F75 %30.46 in10.0 miNNE (20°)6.9 mphOvercast
7:53 AM37.9 °F30.0 °F73 %30.47 in10.0 miNNE (30°)5.8 mphOvercast
8:05 AM39.2 °F30.2 °F70 %30.47 in10.0 miNNE (20°)5.8 mphOvercast
8:53 AM41.0 °F32.0 °F70 %30.47 in10.0 miNNE (30°)4.6 mphOvercast
9:53 AM43.0 °F33.1 °F68 %30.48 in10.0 miNNE (30°)6.9 mphOvercast
10:53 AM48.9 °F37.0 °F64 %30.46 in10.0 miVariable3.5 mphOvercast
11:36 AM51.8 °F42.8 °F71 %30.44 in10.0 miESE (120°)5.8 mphOvercast
11:53 AM52.0 °F42.1 °F69 %30.43 in10.0 miVariable3.5 mphOvercast
12:53 PM55.0 °F46.9 °F74 %30.39 in10.0 miSE (130°)4.6 mphOvercast
1:53 PM57.0 °F46.9 °F69 %30.35 in10.0 miSSE (160°)4.6 mphScattered Clouds
2:53 PM57.9 °F48.0 °F70 %30.34 in10.0 miSSE (160°)8.1 mphMostly Cloudy
3:53 PM57.9 °F48.9 °F72 %30.32 in10.0 miSouth (180°)3.5 mphOvercast
4:05 PM57.2 °F50.0 °F77 %30.32 in10.0 miCalmOvercast
4:23 PM57.2 °F50.0 °F77 %30.32 in10.0 miSouth (180°)3.5 mphOvercast
4:46 PM57.2 °F51.8 °F82 %30.31 in10.0 miSouth (170°)4.6 mphOvercast
4:53 PM57.0 °F51.1 °F81 %30.31 in10.0 miSouth (170°)4.6 mphOvercast
5:53 PM55.9 °F50.0 °F80 %30.30 in10.0 miSSE (150°)3.5 mphMostly Cloudy
6:04 PM53.6 °F48.2 °F82 %30.31 in10.0 miSSE (160°)4.6 mphScattered Clouds
6:53 PM53.1 °F50.0 °F89 %30.31 in9.0 miSouth (170°)3.5 mphScattered Clouds
7:34 PM51.8 °F48.2 °F88 %30.31 in7.0 miCalmOvercast
7:43 PM51.8 °F48.2 °F88 %30.31 in7.0 miCalmOvercast
7:53 PM52.0 °F48.9 °F89 %30.30 in7.0 miCalmOvercast
8:08 PM53.6 °F50.0 °F88 %30.31 in7.0 miCalmOvercast
8:28 PM53.6 °F51.8 °F94 %30.30 in0.5 miSouth (170°)3.5 mphOvercast
8:36 PM53.6 °F51.8 °F94 %30.30 in0.2 miCalmFogFog
8:53 PM53.1 °F52.0 °F96 %30.30 in0.2 miCalmFogFog
9:38 PM53.6 °F51.8 °F94 %30.30 in0.2 miCalmFogFog
9:53 PM52.0 °F51.1 °F97 %30.30 in0.2 miCalmFogFog
10:01 PM51.8 °F50.0 °F94 %30.30 in0.2 miCalmFogFog
10:53 PM53.1 °F52.0 °F96 %30.29 in0.2 miCalmFogFog
11:35 PM53.6 °F51.8 °F94 %30.28 in0.2 miCalmFogFog
11:53 PM53.1 °F52.0 °F96 %30.28 in0.2 miCalmFogFog
Hourly data recorded from KILM, located miles away from Wrightsville Beach, North Carolina







STORIES FROM OUR PARTNERS